This is the latest recevied weather packets stored in our database for station/object F4ETJ-1. If no packets are shown the sender has not sent any weather packets the latest 10 day(s).
| Time | Temp. | Humidity | Pressure | Rain* | Wind** | Luminosity | Snow |
|---|---|---|---|---|---|---|---|
| 1787669718 | 27.22° C | 49% | 1009.4 hPa | 0 mm | - | - | - |
| 1787669358 | 27.78° C | 50% | 1009.4 hPa | 0 mm | - | - | - |
| 1787668998 | 27.78° C | 48% | 1009.4 hPa | 0 mm | - | - | - |
| 1787668637 | 28.33° C | 48% | 1009.4 hPa | 0 mm | - | - | - |
| 1787668277 | 28.33° C | 48% | 1009.3 hPa | 0 mm | - | - | - |
| 1787667917 | 27.78° C | 49% | 1009.3 hPa | 0 mm | - | - | - |
| 1787667556 | 28.33° C | 51% | 1009.3 hPa | 0 mm | - | - | - |
| 1787667196 | 28.33° C | 53% | 1009.2 hPa | 0 mm | - | - | - |
| 1787666836 | 28.33° C | 51% | 1009.2 hPa | 0 mm | - | - | - |
| 1787666475 | 28.33° C | 53% | 1009.1 hPa | 0 mm | - | - | - |
| 1787666115 | 27.78° C | 56% | 1009.2 hPa | 0 mm | - | - | - |
| 1787665755 | 27.78° C | 56% | 1009.1 hPa | 0 mm | - | - | - |
| 1787665394 | 27.78° C | 57% | 1009.1 hPa | 0 mm | - | - | - |
| 1787665034 | 27.22° C | 60% | 1009.1 hPa | 0 mm | - | - | - |
| 1787664674 | 27.22° C | 61% | 1009.2 hPa | 0 mm | - | - | - |
| 1787664313 | 27.78° C | 58% | 1009.3 hPa | 0 mm | - | - | - |
| 1787663953 | 27.78° C | 60% | 1009.2 hPa | 0 mm | - | - | - |
| 1787663594 | 27.22° C | 62% | 1009.3 hPa | 0 mm | - | - | - |
| 1787663232 | 27.22° C | 61% | 1009.3 hPa | 0 mm | - | - | - |
| 1787662872 | 27.22° C | 62% | 1009.1 hPa | 0 mm | - | - | - |
| 1787662512 | 26.67° C | 60% | 1009.1 hPa | 0 mm | - | - | - |
| 1787662151 | 27.22° C | 58% | 1009.2 hPa | 0 mm | - | - | - |
| 1787661791 | 26.67° C | 60% | 1009.2 hPa | 0 mm | - | - | - |
| 1787661430 | 26.67° C | 62% | 1009.1 hPa | 0 mm | - | - | - |
| 1787661070 | 26.67° C | 61% | 1009.2 hPa | 0 mm | - | - | - |
* Rain latest hour (hover to see other rain measurements)
** Current wind speed in m/s (hover to see current wind gust speed)